Alice, TX

9:42 PM CDT on April 22, 2018 (GMT -0500)
Alice International

Weather History for KALI - February, 2014

Change the Weather History Date:

Friday, February 14, 2014

  Actual Average Record
Temperature  
Mean Temperature 64 °F -  
Max Temperature 91 °F 71 °F 91 °F (2014)
Min Temperature 37 °F 48 °F 37 °F (1999)
Degree Days  
Heating Degree Days 1    
Growing Degree Days 14 (Base 50)    
Moisture  
Dew Point 43 °F    
Average Humidity 70    
Maximum Humidity 100    
Minimum Humidity 14    
Precipitation  
Precipitation 0.00 in - - ()
Sea Level Pressure  
Sea Level Pressure 29.92 in    
Wind  
Wind Speed 3 mph (West)    
Max Wind Speed 14 mph    
Max Gust Speed -    
Visibility 6 miles    
Events Fog    
Averages and records for this station are not official NWS values.
T = Trace of Precipitation, MM = Missing Value Source: NWS Daily Summary

Daily Weather History Graph

Daily Weather History Graph

Search for Another Location

Airport or City:

Astronomy

Feb. 14, 2014 Rise Set
Actual Time 7:10 AM CST 6:22 PM CST
Civil Twilight 6:46 AM CST 6:46 PM CST
Nautical Twilight 6:18 AM CST 7:14 PM CST
Astronomical Twilight 5:51 AM CST 7:41 PM CST
Moon 6:23 PM CST (2/14) 6:40 AM CST (2/14)
Length of Visible Light 12h 00m
Length of Day
11h 12m
Full, 100% of the Moon is Illuminated
Feb 14
Full
Feb 14
Full
Feb 22
Last Quarter
Mar 1
New
Mar 8
First Quarter

Hourly Weather History & Observations

Time (CST) Temp. Windchill Dew Point Humidity Pressure Visibility Wind Dir Wind Speed Gust Speed Precip Events Conditions
12:53 AM 42.1 °F - 39.0 °F 89% 29.95 in 10.0 mi Calm Calm - N/A   Clear
1:53 AM 42.1 °F 39.2 °F 39.0 °F 89% 29.95 in 10.0 mi NE 4.6 mph - N/A   Clear
2:53 AM 43.0 °F 41.3 °F 39.9 °F 89% 29.93 in 10.0 mi NNE 3.5 mph - N/A   Clear
3:53 AM 42.1 °F 40.2 °F 39.0 °F 89% 29.89 in 7.0 mi SE 3.5 mph - N/A   Clear
4:32 AM 41.0 °F - 39.2 °F 93% 29.90 in 6.0 mi Calm Calm - N/A   Scattered Clouds
4:39 AM 42.8 °F - 39.2 °F 87% 29.91 in 2.5 mi Calm Calm - N/A   Mostly Cloudy
4:42 AM 42.8 °F - 39.2 °F 87% 29.91 in 1.0 mi Calm Calm - N/A   Mist
4:45 AM 42.8 °F - 39.2 °F 87% 29.90 in 0.5 mi Calm Calm - N/A Fog Fog
4:53 AM 41.0 °F - 41.0 °F 100% 29.91 in 0.2 mi Calm Calm - N/A Fog Fog
5:13 AM 41.0 °F - 41.0 °F 100% 29.90 in 0.2 mi Calm Calm - N/A Fog Fog
5:44 AM 39.2 °F - 37.4 °F 93% 29.91 in 0.2 mi Calm Calm - N/A Fog Fog
5:53 AM 39.0 °F - 37.9 °F 96% 29.90 in 0.2 mi Calm Calm - N/A Fog Fog
6:50 AM 37.4 °F - 37.4 °F 100% 29.92 in 0.5 mi Calm Calm - N/A Fog Fog
6:53 AM 37.9 °F - 37.0 °F 97% 29.92 in 0.5 mi Calm Calm - N/A Fog Fog
7:00 AM 39.2 °F - 39.2 °F 100% 29.92 in 0.2 mi Calm Calm - N/A Fog Fog
7:53 AM 42.1 °F - 42.1 °F 100% 29.93 in 0.2 mi Calm Calm - N/A Fog Fog
8:53 AM 48.0 °F - 46.9 °F 96% 29.94 in 0.2 mi SSW 3.5 mph - N/A Fog Fog
9:07 AM 50.0 °F - 48.2 °F 94% 29.95 in 0.8 mi SSW 4.6 mph - N/A   Mist
9:12 AM 50.0 °F - 48.2 °F 94% 29.94 in 2.0 mi SSW 5.8 mph - N/A   Overcast
9:21 AM 51.8 °F - 50.0 °F 94% 29.94 in 8.0 mi SSW 5.8 mph - N/A   Mostly Cloudy
9:31 AM 53.6 °F - 51.8 °F 94% 29.94 in 10.0 mi SSW 9.2 mph - N/A   Scattered Clouds
9:53 AM 59.0 °F - 52.0 °F 78% 29.95 in 10.0 mi SW 8.1 mph - N/A   Clear
10:53 AM 66.9 °F - 52.0 °F 59% 29.95 in 10.0 mi SW 9.2 mph - N/A   Clear
11:53 AM 73.9 °F - 52.0 °F 46% 29.91 in 10.0 mi WSW 6.9 mph - N/A   Clear
12:53 PM 81.0 °F - 50.0 °F 34% 29.88 in 10.0 mi WSW 13.8 mph - N/A   Clear
1:53 PM 86.0 °F - 50.0 °F 29% 29.83 in 10.0 mi SW 11.5 mph - N/A   Clear
2:53 PM 91.0 °F - 44.1 °F 20% 29.82 in 10.0 mi Variable 5.8 mph - N/A   Clear
3:53 PM 91.0 °F - 36.0 °F 14% 29.81 in 10.0 mi NW 6.9 mph - N/A   Clear
4:53 PM 90.0 °F - 37.0 °F 15% 29.82 in 10.0 mi NNW 12.7 mph - N/A   Clear
5:53 PM 86.0 °F - 37.0 °F 18% 29.84 in 10.0 mi North 11.5 mph - N/A   Clear
6:53 PM 75.9 °F - 39.0 °F 26% 29.88 in 10.0 mi NNE 6.9 mph - N/A   Clear
7:53 PM 70.0 °F - 39.9 °F 33% 29.92 in 10.0 mi NE 8.1 mph - N/A   Clear
8:53 PM 68.0 °F - 43.0 °F 40% 29.96 in 10.0 mi NE 8.1 mph - N/A   Clear
9:53 PM 64.9 °F - 46.9 °F 52% 30.00 in 10.0 mi NNE 9.2 mph - N/A   Clear
10:53 PM 63.0 °F - 45.0 °F 52% 30.03 in 10.0 mi ENE 8.1 mph - N/A   Clear
11:53 PM 61.0 °F - 43.0 °F 52% 30.04 in 10.0 mi ENE 9.2 mph - N/A   Clear